Starlink 4326

operational
NORAD ID: 53081 Int'l Des: 2022-077 Owner: SPXS Country: US Constellation: starlink
LEOCIRCULARRETROGRADESSO

Starlink 4326について

説明を読み込み中...

リアルタイム位置

3D地球を読み込み中...

次回通過

高度履歴

Altitude vs Time

uPlot chart will show altitude changes over time

軌道要素

1 53081U 22077AQ 26071.05920858 .00000550 00000-0 47367-4 0 9999
2 53081 97.6046 252.5160 0000726 127.3608 232.7683 15.01261789201277
Epoch: Mar 12, 2026 • Age: 19 hours

現在のステータス

高度 572.2 km
速度 7.58 km/s
衛星直下点 56.08°N, 142.37°E
打ち上げ日 Jul 11, 2022
運用期間 3.6 years
タイプ internet

技術仕様

分類 Payload
質量 297.00 kg
乾燥質量 275.00 kg
総質量 297.00 kg
長さ 0.20 m
直径 2.80 m
スパン 9.00 m
形状 Box + pan
製造者 SPXS
バスタイプ Starlink
フェーズステータス In Orbit
所有者/国 SPXS/US

大規模コンステレーション

Loading constellations...